Change the Weather History Date:

Monday, December 3, 2012

  Actual Average Record
Temperature  
Mean Temperature 57 °F 38 °F  
Max Temperature 65 °F 45 °F 71 °F (1998)
Min Temperature 48 °F 31 °F 15 °F (2000)
Degree Days  
Heating Degree Days 8 27  
Month to date heating degree days 56 80  
Since 1 July heating degree days 1086 1085  
Cooling Degree Days 0 0  
Month to date cooling degree days 0 0  
Year to date cooling degree days 1276 969  
Growing Degree Days 6 (Base 50)    
Moisture  
Dew Point 51 °F    
Average Humidity 82    
Maximum Humidity 96    
Minimum Humidity 67    
Precipitation  
Precipitation 0.00 in 0.12 in 0.04 in (2014)
Month to date precipitation T 0.34  
Year to date precipitation 35.08 36.74  
Sea Level Pressure  
Sea Level Pressure 30.23 in    
Wind  
Wind Speed 5 mph (South)    
Max Wind Speed 9 mph    
Max Gust Speed 14 mph    
Visibility 10 miles    
Events      
T = Trace of Precipitation, MM = Missing Value Source: NWS Daily Summary

Daily Weather History Graph

Daily Weather History Graph

Search for Another Location

Airport or City:

Trip Planner

Search our weather history database for the weather conditions in past years. The results will help you decide how hot, cold, wet, or windy it might be!

Date:

Astronomy

Dec. 03, 2012 Rise Set
Actual Time 7:15 AM EST 4:46 PM EST
Civil Twilight 6:45 AM EST 5:16 PM EST
Nautical Twilight 6:11 AM EST 5:50 PM EST
Astronomical Twilight 5:39 AM EST 6:22 PM EST
Moon 9:31 PM EST (12/3) 10:37 AM EST (12/3)
Length of Visible Light 10h 31m
Length of Day
9h 31m
Waning Gibbous, 78% of the Moon is Illuminated
Dec 3
Waning Gibbous
Dec 6
Last Quarter
Dec 13
New
Dec 20
First Quarter
Dec 28
Full

Hourly Weather History & Observations

Time (EST) Temp. Dew Point Humidity Pressure Visibility Wind Dir Wind Speed Gust Speed Precip Events Conditions
12:53 AM 48.9 °F 45.0 °F 86% 30.18 in 6.0 mi ESE 4.6 mph - N/A   Clear
1:53 AM 50.0 °F 45.0 °F 83% 30.19 in 8.0 mi SSE 5.8 mph - N/A   Partly Cloudy
2:53 AM 53.1 °F 48.0 °F 83% 30.20 in 9.0 mi South 3.5 mph - N/A   Overcast
3:53 AM 53.1 °F 48.0 °F 83% 30.20 in 10.0 mi SSE 5.8 mph - N/A   Overcast
4:53 AM 50.0 °F 48.0 °F 93% 30.20 in 10.0 mi Calm Calm - N/A   Overcast
5:53 AM 55.9 °F 52.0 °F 87% 30.21 in 10.0 mi West 3.5 mph - N/A   Clear
6:53 AM 55.9 °F 52.0 °F 87% 30.23 in 10.0 mi WSW 5.8 mph - N/A   Clear
7:53 AM 50.0 °F 48.9 °F 96% 30.25 in 6.0 mi South 4.6 mph - N/A   Clear
8:53 AM 52.0 °F 50.0 °F 93% 30.28 in 9.0 mi SSE 4.6 mph - N/A   Mostly Cloudy
9:38 AM 55.4 °F 51.8 °F 88% 30.24 in 10.0 mi South 4.6 mph - N/A   Mostly Cloudy
10:53 AM 61.0 °F 53.1 °F 75% 30.27 in 10.0 mi South 3.5 mph - N/A   Clear
11:53 AM 63.0 °F 53.1 °F 70% 30.25 in 10.0 mi SW 6.9 mph - N/A   Overcast
12:53 PM 64.0 °F 53.1 °F 67% 30.23 in 10.0 mi SW 6.9 mph - N/A   Mostly Cloudy
1:53 PM 64.9 °F 53.1 °F 65% 30.21 in 10.0 mi SW 6.9 mph - N/A   Mostly Cloudy
2:53 PM 64.0 °F 54.0 °F 70% 30.22 in 10.0 mi SSW 4.6 mph - N/A   Overcast
3:53 PM 63.0 °F 54.0 °F 72% 30.22 in 10.0 mi South 3.5 mph - N/A   Overcast
4:53 PM 62.1 °F 53.1 °F 72% 30.23 in 10.0 mi SE 3.5 mph - N/A   Overcast
5:53 PM 60.1 °F 53.1 °F 78% 30.24 in 10.0 mi ESE 4.6 mph - N/A   Overcast
6:53 PM 60.1 °F 53.1 °F 78% 30.25 in 10.0 mi ESE 5.8 mph - N/A   Mostly Cloudy
7:53 PM 60.1 °F 52.0 °F 75% 30.25 in 10.0 mi SE 3.5 mph - N/A   Overcast
8:53 PM 59.0 °F 52.0 °F 78% 30.24 in 10.0 mi South 5.8 mph - N/A   Overcast
9:53 PM 61.0 °F 52.0 °F 72% 30.23 in 10.0 mi South 9.2 mph - N/A   Mostly Cloudy
10:53 PM 57.0 °F 51.1 °F 81% 30.23 in 10.0 mi South 3.5 mph - N/A   Scattered Clouds
11:53 PM 57.0 °F 51.1 °F 81% 30.23 in 10.0 mi South 4.6 mph - N/A   Mostly Cloudy